This is the latest recevied weather packets stored in our database for station/object WX7EM. If no packets are shown the sender has not sent any weather packets the latest 10 day(s).
| Time | Temp. | Humidity | Pressure | Rain* | Wind** | Luminosity | Snow |
|---|---|---|---|---|---|---|---|
| 1777747502 | 14.44° C | 78% | 1014.7 hPa | 0 mm | - | 271 W/m² | - |
| 1777747198 | 14.44° C | 78% | 1014.6 hPa | 0 mm | - | 247 W/m² | - |
| 1777746895 | 14.44° C | 78% | 1014.6 hPa | 0 mm | - | 238 W/m² | - |
| 1777746589 | 14.44° C | 78% | 1014.6 hPa | 0 mm | - | 259 W/m² | - |
| 1777746286 | 13.89° C | 79% | 1014.7 hPa | 0 mm | - | 226 W/m² | - |
| 1777745982 | 13.89° C | 78% | 1014.8 hPa | 0 mm | - | 201 W/m² | - |
| 1777745680 | 13.89° C | 79% | 1014.8 hPa | 0 mm | - | 165 W/m² | - |
| 1777745379 | 14.44° C | 79% | 1014.6 hPa | 0 mm | - | 162 W/m² | - |
| 1777745076 | 13.89° C | 79% | 1014.6 hPa | 0 mm | - | 214 W/m² | - |
| 1777744772 | 13.89° C | 79% | 1014.8 hPa | 0 mm | - | 195 W/m² | - |
| 1777744466 | 13.89° C | 80% | 1014.6 hPa | 0 mm | - | 239 W/m² | - |
| 1777744163 | 13.89° C | 79% | 1014.9 hPa | 0 mm | - | 200 W/m² | - |
| 1777743860 | 13.89° C | 80% | 1014.8 hPa | 0 mm | - | 218 W/m² | - |
| 1777743556 | 13.89° C | 78% | 1014.8 hPa | 0 mm | - | 292 W/m² | - |
| 1777743253 | 14.44° C | 77% | 1014.8 hPa | 0 mm | - | 302 W/m² | - |
| 1777742952 | 14.44° C | 77% | 1014.8 hPa | 0 mm | - | 442 W/m² | - |
| 1777742648 | 14.44° C | 76% | 1015 hPa | 0 mm | - | 345 W/m² | - |
| 1777742344 | 14.44° C | 78% | 1014.7 hPa | 0 mm | - | 593 W/m² | - |
| 1777742040 | 14.44° C | 76% | 1014.7 hPa | 0 mm | - | 551 W/m² | - |
| 1777741738 | 14.44° C | 75% | 1014.4 hPa | 0 mm | - | 454 W/m² | - |
| 1777741434 | 14.44° C | 77% | 1014.7 hPa | 0 mm | - | 518 W/m² | - |
| 1777741130 | 13.89° C | 79% | 1014.9 hPa | 0 mm | - | 393 W/m² | - |
| 1777740828 | 13.33° C | 80% | 1015 hPa | 0 mm | - | 497 W/m² | - |
| 1777740524 | 12.78° C | 80% | 1015.2 hPa | 0 mm | - | 339 W/m² | - |
| 1777740221 | 12.78° C | 82% | 1015.3 hPa | 0 mm | - | 301 W/m² | - |
* Rain latest hour (hover to see other rain measurements)
** Current wind speed in m/s (hover to see current wind gust speed)